Regional Weather Roundup
Issued by NWS Binghamton, NY

Home | Current Version | Previous Version | Text Only | Print | Product List | Glossary On
Versions: 1 2 3 4 5 6 7 8 9 10 11 12 13 14 15 16 17 18 19 20 21 22 23 24 25 26 27 28
000
ASUS41 KBGM 201810
RWRBGM

REGIONAL WEATHER ROUNDUP
NATIONAL WEATHER SERVICE BINGHAMTON NY
200 PM EDT SUN AUG 20 2017

Note: "fair" indicates few or no clouds below 12,000 feet with no
significant weather and/or obstructions to visibility.

* = Station(s) that does not report precipitation, such as rain,
snow, etc, also no thunder or fog.

NYZ009-015>018-022>025-036-037-044>046-055>057-062-201900
...Central New York...

CITY           SKY/WX    TMP DP  RH WIND       PRES   REMARKS
Binghamton     MOSUNNY   73  58  59 VRB5G17   30.15S
Cortland       FAIR      75  61  60 W7        30.13F
Dansville      MOSUNNY   82  59  45 NW10G17   30.11S
Elmira         PTSUNNY   80  61  52 W6        30.10F
Seneca Falls   MOCLDY    81  61  50 W5        30.09F
Ithaca         PTSUNNY   76  61  59 NW7       30.13F
Hamilton       MOSUNNY   75  55  50 NW5       30.12F
Hornell        PTSUNNY   81  54  39 NW10      30.16S
Monticello     MOSUNNY   74  59  59 W10       30.14S
Penn Yan       MOSUNNY   78  58  49 NW6       30.12S
Rome           MOSUNNY   77  62  59 SW8       30.09S
Sidney         PTSUNNY   75  57  53 NW5       30.12F
Syracuse       MOSUNNY   78  60  53 VRB6      30.08F
$$

PAZ038>040-043-044-047-048-072-201900
...Northeast Pennsylvania...

CITY           SKY/WX    TMP DP  RH WIND       PRES   REMARKS
Hazleton         N/A     79  61  53 NW6       30.19F
Scranton       MOSUNNY   78  60  53 NW8       30.14F
$$
&&
KEY
WCI = Wind Chill Index
VSB = Visibility
HX  = Heat Index
$$




USA.gov is the U.S. government's official web portal to all federal, state and local government web resources and services.